Regional Weather Roundup
Issued by NWS

Home | Current Version | Previous Version | Text Only | Print | Product List | Glossary Off
Versions: 1 2 3 4 5 6 7 8 9 10 11 12 13 14 15 16 17 18 19 20 21 22 23 24 25 26 27 28 29 30 31 32 33 34 35 36 37 38 39 40 41 42 43 44 45 46 47 48 49 50

000
ASUS45 KABQ 221210
RWRNM
NEW MEXICO REGIONAL WEATHER ROUNDUP
NATIONAL WEATHER SERVICE ALBUQUERQUE NM
600 AM MDT SUN APR 22 2018

NOTE: "FAIR" MEANS FEW OR NO CLOUDS BELOW 12,000 FEET AGL WITH NO
       SIGNIFICANT WEATHER OR OBSTRUCTIONS TO VISION.

      THIS PRODUCT IS RELEASED AS TWO VERSIONS.  ONE VERSION NEAR
      THE TOP OF THE HOUR CONTAINING PRELIMINARY DATA FROM ALBUQUERQUE
      AND OTHER STATIONS.  A FINAL VERSION WITH ADDITIONAL DATA IS
      ISSUED ABOUT 10 MINUTES AFTER THE HOUR.

NMZ501-503-504-510>518-221300-
NORTHWEST PLATEAU/NORTHCENTRAL MOUNTAINS

CITY           SKY/WX    TMP DP  RH WIND       PRES   REMARKS
FARMINGTON     FAIR      33  15  47 NE8       30.17R WCI  26
6HR MIN TEMP:  33; 6HR MAX TEMP:  53;

LOS ALAMOS     FAIR      37  32  82 CALM      30.23S
SANTA FE       FAIR      34  33  96 CALM      30.21F
6HR MIN TEMP:  33; 6HR MAX TEMP:  45;

TAOS           FAIR      27  21  78 E6        30.27R WCI  20
ANGEL FIRE     FAIR      18  15  91 CALM      30.28R

$$
NMZ402-403-502-505>509-221300-
WESTCENTRAL MOUNTAINS/SOUTHWEST MOUNTAINS

CITY           SKY/WX    TMP DP  RH WIND       PRES   REMARKS
GALLUP         FAIR      26  19  74 CALM      30.21S
6HR MIN TEMP:  25; 6HR MAX TEMP:  40;

GRANTS         FAIR      31  18  59 NE5       30.24R WCI  26
SILVER CITY    FAIR      48  22  36 NE8       30.14F

$$
NMZ407-409-411-412-221300-
SOUTHERN DESERTS

CITY           SKY/WX    TMP DP  RH WIND       PRES   REMARKS
DEMING         FAIR      48  25  40 N6        30.09F
6HR MIN TEMP:  46; 6HR MAX TEMP:  56;

LAS CRUCES     FAIR      46  23  39 CALM      30.13R
HOLLOMAN AFB   FAIR      44  20  39 N9        30.14F
ALAMOGORDO     FAIR      46  21  36 W6        30.12F
T OR C         FAIR      51  26  37 NW9       30.12S
6HR MIN TEMP:  51; 6HR MAX TEMP:  63;


$$
NMZ519>523-221300-
CENTRAL VALLEYS/CENTRAL HIGHLANDS

CITY           SKY/WX    TMP DP  RH WIND       PRES   REMARKS
ALBUQUERQUE    FAIR      44  33  65 N9        30.18S
6HR MIN TEMP:  44; 6HR MAX TEMP:  58;

DOUBLE EAGLE   CLEAR     37  32  81 N7        30.20  WCI  32
MORIARTY ARPT  CLOUDY    38  34  85 CALM      30.23S
6HR MIN TEMP:  34; 6HR MAX TEMP:  44;

CLINES CORNERS FOG       31  29  92 CALM      30.22F VSB 1
6HR MIN TEMP:  30; 6HR MAX TEMP:  37;

BELEN          FAIR      40  28  60 N5        30.18R
6HR MIN TEMP:  40; 6HR MAX TEMP:  51;

SOCORRO        FAIR      42  24  48 CALM      30.15S
6HR MIN TEMP:  42; 6HR MAX TEMP:  55;


$$
NMZ524>526-539-540-221300-
SOUTHCENTRAL MOUNTAINS

CITY           SKY/WX    TMP DP  RH WIND       PRES   REMARKS
RUIDOSO        FAIR      34  27  75 S6        30.24S WCI  29

$$
NMZ527>531-221300-
NORTHEAST HIGHLANDS/NORTHEAST PLAINS

CITY           SKY/WX    TMP DP  RH WIND       PRES   REMARKS
LAS VEGAS      FAIR      31  31 100 S8        30.21S FOG     WCI  23
6HR MIN TEMP:  31; 6HR MAX TEMP:  38;

RATON          CLOUDY    37  33  85 W5        30.20R WCI  33
6HR MIN TEMP:  35; 6HR MAX TEMP:  38;

CLAYTON        CLOUDY    39  39 100 S6        30.18S WCI  35
6HR MIN TEMP:  38; 6HR MAX TEMP:  39;


$$
NMZ532>537-221300-
EASTCENTRAL PLAINS

CITY           SKY/WX    TMP DP  RH WIND       PRES   REMARKS
SANTA ROSA     FAIR      35  33  93 S6        30.21S WCI  29
TUCUMCARI      FAIR      39  36  89 CALM      30.19R FOG
6HR MIN TEMP:  39; 6HR MAX TEMP:  46;

CANNON AFB     FAIR      38  38 100 NW5       30.21F WCI  34
6HR MIN TEMP:  37; 6HR MAX TEMP:  40;

CLOVIS AIRPORT FAIR      34  33  96 NW3       30.21F

$$
NMZ028-029-538-221300-
SOUTHEAST PLAINS

CITY           SKY/WX    TMP DP  RH WIND       PRES   REMARKS
ROSWELL        FAIR      42  36  79 CALM      30.21R
6HR MIN TEMP:  41; 6HR MAX TEMP:  52;

ARTESIA        FAIR      43  30  61 NW7       30.23R
CARLSBAD       FAIR      45  36  70 CALM      30.21R
6HR MIN TEMP:  42; 6HR MAX TEMP:  54;

HOBBS          PTCLDY    39  36  87 NW8       30.21R WCI  34


$$



USA.gov is the U.S. government's official web portal to all federal, state and local government web resources and services.